Location: Fenile
(46.0500°N, 9.5500°E)
Time: 17:16:38
(UTC+00:00)

Cosmos 1844 Rocket - Pass Details

Date: 03 March 2021
Orbit: 826 x 843 km, 71.0° (Epoch: 11 April)

Event Time Altitude Azimuth Distance (km) Brightness Sun altitude
Rises 18:22:22 0° 335° (NNW) 3,375 6.3 -13.1°
Reaches altitude 10° 18:24:50 10° 337° (NNW) 2,438 5.5 -13.6°
Maximum altitude 18:30:24 70° 62° (ENE) 880 2.6 -14.5°
Drops below altitude 10° 18:35:56 10° 146° (SE) 2,424 4.7 -15.5°
Enters shadow 18:36:04 - 146° (SE) 2,473 4.8 -15.5°
